星链-34407 (STARLINK-34407)

导读 | 豆包AI

STARLINK-34407是美国于2025年6月13日发射的星链卫星,隶属于SpaceX公司的星链星座项目。星链计划旨在构建全球卫星互联网星座,为全球各地提供高速互联网接入服务。该卫星的成功发射进一步扩充了星链星座的规模,推动了全球卫星互联网络的部署进程,增强了星座的覆盖能力与服务稳定性。

Basic Information
目录编号:
64347
目录名称:
STARLINK-34407
国际标识:
2025-126D
轨道中心:
EARTH
卫星名称:
星链-34407
卫星全名:
星链-34407 (STARLINK-34407)
卫星状态:
在轨 (已飞行320 天)
发射日期:
2025-06-13 UTC
国别 :
美国 (US)
星等 :
--
Orbit Information
数据来源 国际轨道数据 AOE轨道数据
星历时间 2026-04-29T02:56:48+0800
21小时前
查看轨道信息
2026-04-28T13:00:00+0800
1天前
查看轨道信息
半长轴 6950.174km 6950.161km
偏心率 0.0003087 0.0003062
轨道倾角 70.000° 70.003°
近地点辐角 267.572° 271.206°
升交点赤经 268.240° 269.704°
平近点角 92.508° 195.291°
近地点 569.891km 569.895km
远地点 574.183km 574.153km
周期 96.107分钟 96.106分钟
每日圈数 14.983362 14.983406
Detailed Information
固有亮度:
5
最大亮度:
2.5
卫星平台:
Starlink V1.0
覆盖范围:
全球
运营商:
太空探索技术公司
运营商所在国:
美国
制造商(研发单位):
太空探索技术公司
制造商所在国:
美国
使用方式:
暂无
Satellite Introduction
Starlink 计划是 SpaceX 推出的全球卫星互联网项目,通过发射低轨道卫星,为全球尤其是偏远地区提供高速、低延迟的互联网服务。自 2019 年起,Starlink 已部署数千颗卫星,旨在缩小全球数字鸿沟,推动互联网普及。该项目还为军事、航空等行业提供通信支持,带来广泛经济效益。
2D Orbit Map
3D Orbit Map
Orbit Altitude Analysis Chart
Orbit Inclination Analysis Chart
Orbit Comprehensive Analysis Chart
View Comprehensive Chart